Regional Weather Roundup
Issued by NWS Little Rock, AR

Home | Current Version | Previous Version | Text Only | Print | Product List | Glossary On
Versions: 1 2 3 4 5 6 7 8 9 10 11 12 13 14 15 16 17 18 19 20 21 22 23 24 25 26 27 28 29 30 31 32 33 34 35 36 37 38 39 40 41 42 43 44 45 46 47 48 49 50
000
ASUS44 KLZK 010705
RWRLZK

WEATHER ROUNDUP FOR ARKANSAS
NATIONAL WEATHER SERVICE LITTLE ROCK AR
200 AM CDT TUE SEP 01 2015

NOTE: "FAIR" INDICATES FEW OR NO CLOUDS BELOW 12,000 FEET WITH NO
SIGNIFICANT WEATHER AND/OR OBSTRUCTIONS TO VISIBILITY.

ARZ001-003-010-029-010800-
NORTHWEST ARKANSAS

CITY           SKY/WX    TMP DP  RH WIND       PRES   REMARKS
FAYETTEVILLE   CLEAR     67  67 100 SE3       30.08R FOG
FORT SMITH     CLEAR     73  68  84 E6        30.04R
BENTONVILLE    CLEAR     70  63  78 SE3       30.08S
ROGERS         CLEAR     72  66  81 SE5       30.09R
SILOAM SPGS    CLEAR     72  63  73 SE6       30.06S
HIGHFILL       CLEAR     72  66  81 CALM      30.07S
$$

ARZ004-005-016-010800-
NORTH CENTRAL ARKANSAS

CITY           SKY/WX    TMP DP  RH WIND       PRES   REMARKS
BATESVILLE     CLEAR     72  70  94 CALM      30.07S
FLIPPIN        CLEAR     70  63  78 CALM      30.06S
MTN HOME       CLEAR     70  68  93 SE3       30.07S
$$

ARZ040-041-010800-
WEST CENTRAL ARKANSAS

CITY           SKY/WX    TMP DP  RH WIND       PRES   REMARKS
MENA           CLEAR     70  68  94 CALM      30.07S
MOUNT IDA      CLEAR     69  67  93 CALM      30.04S FOG
$$

ARZ009-017-025-026-028-010800-
NORTHEAST ARKANSAS

CITY           SKY/WX    TMP DP  RH WIND       PRES   REMARKS
JONESBORO      CLEAR     68  68 100 CALM      30.07S
NEWPORT        CLEAR     74  71  90 CALM      30.07S
WALNUT RIDGE   CLEAR     72  66  83 CALM      30.07S
BLYTHEVILLE    CLEAR     73  69  87 SE3       30.07F
$$

ARZ022-023-033-042-044-010800-
CENTRAL ARKANSAS

CITY           SKY/WX    TMP DP  RH WIND       PRES   REMARKS
LITTLE ROCK    PTCLDY    76  70  82 CALM      30.04S
N LITTLE ROCK    N/A     77  71  80 SE6       30.04S
JACKSONVILLE   CLEAR     71  69  93 NE3       30.04S
SEARCY         CLEAR     72  70  93 CALM      30.07S
HOT SPRINGS    CLEAR     72  68  87 CALM      30.05S
RUSSELLVILLE   CLEAR     70  68  93 CALM      30.04S
$$

ARZ036-010800-
EAST ARKANSAS

CITY           SKY/WX    TMP DP  RH WIND       PRES   REMARKS
WEST MEMPHIS   CLEAR     71  69  93 S3        30.05F
$$

ARZ050-053-066-070-073-010800-
SOUTHWEST ARKANSAS

CITY           SKY/WX    TMP DP  RH WIND       PRES   REMARKS
ARKADELPHIA    FAIR      69  69 100 CALM      30.04S FOG
CAMDEN         MOCLDY    72  66  83 CALM      30.04S
TEXARKANA      CLEAR     73  65  75 SW6       30.04S
EL DORADO      MOCLDY    69  63  81 CALM      30.05S
DE QUEEN       CLEAR     68  67  96 CALM      30.02S FOG
$$

ARZ056-057-069-010800-
SOUTHEAST ARKANSAS

CITY           SKY/WX    TMP DP  RH WIND       PRES   REMARKS
PINE BLUFF     PTCLDY    74  69  85 CALM      30.04S
STUTTGART      PTCLDY    75  66  73 SE8       30.05S
MONTICELLO     CLEAR     71  69  93 CALM      30.04S

$$





USA.gov is the U.S. government's official web portal to all federal, state and local government web resources and services.